EW9688 Weather Reports


time (UTC)temp
F
wind
direction
speed
knots
gust
knots
rain 1hr
in
rain 24hr
in
rain mn
in
humidity
%
barometer
mb
20260504211217 65 89 1.7 4.3 0.00 0.00 0.00 33 1008.8
20260504210237 66 168 4.3 7.0 0.00 0.00 0.00 31 1008.7
20260504205217 65 13 1.7 3.5 0.00 0.00 0.00 31 1008.9
20260504204217 65 88 3.5 5.2 0.00 0.00 0.00 33 1009.0
20260504203218 65 177 4.3 6.1 0.00 0.00 0.00 33 1009.2
20260504202218 63 158 3.5 7.0 0.00 0.00 0.00 37 1009.5
20260504201218 61 139 3.5 6.1 0.00 0.00 0.00 37 1009.8
20260504200219 60 166 3.5 5.2 0.00 0.00 0.00 38 1010.1
20260504195218 60 225 3.5 6.1 0.00 0.00 0.00 40 1010.2
20260504194218 60 185 3.5 6.1 0.00 0.00 0.00 40 1010.1
20260504193219 61 205 5.2 7.8 0.00 0.00 0.00 39 1009.9
20260504192219 65 178 4.3 7.0 0.00 0.00 0.00 33 1009.6
20260504191219 66 207 3.5 4.3 0.00 0.00 0.00 26 1009.2
20260504190219 67 311 1.7 3.5 0.00 0.00 0.00 26 1008.8
20260504185220 68 289 1.7 4.3 0.00 0.00 0.00 25 1008.7
20260504184219 70 289 2.6 5.2 0.00 0.00 0.00 25 1008.7
20260504183240 70 292 2.6 5.2 0.00 0.00 0.00 23 1008.8
20260504182220 69 301 2.6 3.5 0.00 0.00 0.00 23 1008.8
20260504181300 68 307 3.5 5.2 0.00 0.00 0.00 25 1009.0
20260504180300 68 352 1.7 3.5 0.00 0.00 0.00 25 1009.1
20260504175217 68 292 3.5 7.0 0.00 0.00 0.00 27 1009.2
20260504174220 67 292 4.3 7.0 0.00 0.00 0.00 28 1009.5
20260504173220 66 299 2.6 5.2 0.00 0.00 0.00 29 1009.7
20260504172220 66 331 3.5 5.2 0.00 0.00 0.00 29 1009.8
20260504171221 65 258 1.7 4.3 0.00 0.00 0.00 29 1009.8
20260504170218 65 295 2.6 6.1 0.00 0.00 0.00 29 1009.9
20260504160228 62 262 2.6 3.5 0.00 0.00 0.00 31 1010.6
20260504150217 60 268 1.7 2.6 0.00 0.00 0.00 31 1010.6
20260504141218 59 305 2.6 4.3 0.00 0.00 0.00 31 1010.9
20260504140218 59 295 2.6 2.6 0.00 0.00 0.00 31 1010.9
20260504130216 54 284 1.7 1.7 0.00 0.00 0.00 28 1010.9
20260504120219 52 274 3.5 4.3 0.00 0.00 0.00 29 1010.2
20260504110228 49 293 2.6 4.3 0.00 0.00 0.00 31 1010.6
20260504100227 47 304 2.6 4.3 0.00 0.00 0.00 41 1011.1
20260504081227 50 193 0.9 0.9 0.00 0.00 0.00 36 1011.7
20260504080225 48 299 2.6 2.6 0.00 0.00 0.00 40 1011.7
20260504070226 52 272 1.7 2.6 0.00 0.00 0.00 39 1012.3
20260504060222 55 267 2.6 3.5 0.00 0.00 0.00 34 1012.4
20260504050220 58 204 0.9 1.7 0.00 0.00 0.00 29 1012.3
20260504045223 58 186 2.6 3.5 0.00 0.00 0.00 30 1012.4
20260504044223 58 228 0.9 1.7 0.00 0.00 0.00 29 1012.4
20260504043223 58 211 0.9 1.7 0.00 0.00 0.00 31 1012.4
20260504042223 58 230 0.9 0.9 0.00 0.00 0.00 30 1012.4
20260504041224 59 276 0.9 1.7 0.00 0.00 0.00 30 1012.5
20260504040224 60 235 0.9 0.9 0.00 0.00 0.00 29 1012.6
20260504035305 60 277 2.6 3.5 0.00 0.00 0.00 30 1012.6
20260504034224 60 298 1.7 2.6 0.00 0.00 0.00 30 1012.7
20260504033224 60 286 2.6 3.5 0.00 0.00 0.00 29 1012.7
20260504032224 60 293 2.6 3.5 0.00 0.00 0.00 29 1012.8
20260504031221 61 290 3.5 5.2 0.00 0.00 0.00 29 1012.7
20260504030222 61 288 2.6 4.3 0.00 0.00 0.00 29 1012.6
20260504025228 61 297 1.7 2.6 0.00 0.00 0.00 28 1012.5
20260504024231 61 264 1.7 2.6 0.00 0.00 0.00 28 1012.5
20260504023248 62 282 2.6 4.3 0.00 0.00 0.00 27 1012.5
20260504022233 62 238 2.6 4.3 0.00 0.00 0.00 28 1012.5
20260504021228 63 224 3.5 4.3 0.00 0.00 0.00 26 1012.5
20260504020228 63 200 2.6 7.0 0.00 0.00 0.00 25 1012.4
20260504015232 63 289 1.7 2.6 0.00 0.00 0.00 26 1012.3
20260504014231 63 288 2.6 3.5 0.00 0.00 0.00 26 1012.2
20260504013252 63 241 1.7 2.6 0.00 0.00 0.00 26 1012.1
20260504012232 64 278 2.6 2.6 0.00 0.00 0.00 26 1012.1
20260504011232 65 7 1.7 2.6 0.00 0.00 0.00 25 1012.1
20260504010223 65 22 2.6 5.2 0.00 0.00 0.00 25 1012.2
20260504005223 65 327 3.5 6.1 0.00 0.00 0.00 25 1012.2
20260504004224 64 15 1.7 2.6 0.00 0.00 0.00 26 1012.2
20260504003313 64 289 0.9 2.6 0.00 0.00 0.00 26 1012.3
20260504002225 64 341 1.7 3.5 0.00 0.00 0.00 26 1012.3
20260504001244 64 1 2.6 4.3 0.00 0.00 0.00 25 1012.4
20260504000253 64 356 1.7 2.6 0.00 0.00 0.00 28 1012.6
20260503235253 64 34 1.7 1.7 0.00 0.00 0.00 26 1012.7
20260503234224 63 24 1.7 2.6 0.00 0.00 0.00 30 1012.8
20260503233233 63 6 1.7 2.6 0.00 0.00 0.00 30 1012.9
20260503232225 64 8 2.6 3.5 0.00 0.00 0.00 30 1012.6
20260503231226 65 30 5.2 6.1 0.00 0.00 0.00 28 1012.2
20260503230234 66 26 2.6 4.3 0.00 0.00 0.00 25 1012.3
20260503225315 66 334 1.7 3.5 0.00 0.00 0.00 24 1012.5
20260503224245 66 17 2.6 3.5 0.00 0.00 0.00 23 1012.5
20260503223306 66 18 2.6 3.5 0.00 0.00 0.00 23 1012.2
20260503222234 67 17 1.7 2.6 0.00 0.00 0.00 23 1012.3
20260503221225 67 15 2.6 2.6 0.00 0.00 0.00 24 1012.6
20260503220225 66 258 2.6 4.3 0.00 0.00 0.00 24 1012.9
20260503215226 66 208 4.3 7.0 0.00 0.00 0.00 23 1013.0
20260503214227 66 223 3.5 5.2 0.00 0.00 0.00 22 1013.1
20260503213327 66 229 3.5 6.1 0.00 0.00 0.00 22 1013.2
20260503212224 68 234 4.3 7.0 0.00 0.00 0.00 21 1013.2